User: anonymous   Login
Location: Bovenkerk
(52.2915°N, 4.8336°E)
Time: 13:00:01
(UTC+00:00)
Language:

Cosmos 1340 - Orbit

View from above orbital plane
View from above orbital plane
View from above satellite
View from above satellite

Ground track
Ground track

The orbit data is extracted from the following two-line orbital elements,

1 13067U 82013A   20188.96073911  .00000459  00000-0  19633-4 0  9990
2 13067  81.1869 271.8809 0003683  33.7945 326.3521 15.20810777 97329
Epoch (UTC): 06 July 2020 23:03:27
Eccentricity: 0.0003683
inclination: 81.1869°
perigee height: 501 km
apogee height: 506 km
right ascension of ascending node: 271.8809°
argument of perigee: 33.7945°
revolutions per day: 15.20810777
mean anomaly at epoch: 326.3521°
orbit number at epoch: 9732

The dashed part of the orbit path shows where the satellite is in the earth's shadow,  

DLR